Regional Weather Roundup
Issued by NWS Pendleton, OR

Home | Current Version | Previous Version | Text Only | Print | Product List | Glossary On
Versions: 1 2 3 4 5 6 7 8 9 10 11 12 13 14 15 16 17 18 19 20 21 22 23 24 25 26 27 28 29 30 31 32 33 34 35 36 37 38 39 40 41 42 43 44 45 46 47 48 49 50
000
ASUS46 KPDT 280025
RWRPDT
PENDLETON REGIONAL WEATHER ROUNDUP
NATIONAL WEATHER SERVICE PENDLETON OREGON
400 PM PST THU NOV 27 2014

NOTE: FAIR INDICATES FEW OR NO CLOUDS BELOW 12,000 FEET WITH NO
SIGNIFICANT WEATHER AND/OR OBSTRUCTIONS TO VISIBILITY.

# INDICATES UNOFFICIAL STATION AND DATA

WAZ520-280110-
EAST SLOPES OF WASHINGTON CASCADES

CITY            SKY/WX      TMP DP  RH  WIND    PRES   REMARKS
#BULLFROG 2SW   N/A         48  47  96  S2      27.38F
#BUMPING DAM    N/A         45  N/A N/A S6      N/A
#CLE ELUM HS    N/A         51  48  89  CALM    29.74
#CLE ELUM 2NW   N/A         47  47  100 CALM    N/A
#CLE ELUM LAKE  N/A         50  42  74  NW2     29.74S
#CLIFFDEL 2NW   N/A         48  39  71  W5      N/A
#GLENWOOD       N/A         50  47  89  S5      29.84
#MANASTASH CYN  N/A         44  38  79  CALM    29.76S
#NELSON         N/A         44  43  96  CALM    29.80S
#NELSON 3SW     N/A         43  42  96  CALM    30.00
#NILE           N/A         47  42  83  CALM    29.06S
#RONALD 2NW     N/A         49  45  86  E2      29.66S
#SNOWDEN        N/A         49  43  80  CALM    N/A
#TEANAWAY 4NE   N/A         49  49  100 CALM    N/A
#TROUT LAKE HS  N/A         53  47  80  SW2     N/A
#TROUT LAKE 1NE N/A         51  46  83  SW5     29.86S
$$

WAZ521-280110-
SIMCOE HIGHLANDS

CITY            SKY/WX      TMP DP  RH  WIND    PRES   REMARKS
#BICKLETON HS   N/A         48  43  83  W14     29.94S WCI 42
#CENTERVILLE 4W N/A         52  48  86  N1      29.63S
#CENTERVILLE 1SWN/A         49  46  89  CALM    29.85
#GOLDENDALE     N/A         51  48  89  NW2     N/A
#GOLDENDALE 1NE N/A         51  48  89  W3      N/A
#GOLDENDALE 1S  N/A         50  48  93  NW1     29.86
#GOLDENDALE 5WNWN/A         50  48  93  N7      29.84F
#GOODNOE HILLS  N/A         55  47  74  W20     N/A
#LYLE 6NE       N/A         53  48  83  CALM    29.84
$$

WAZ026-280110-
KITTITAS VALLEY

CITY            SKY/WX      TMP DP  RH  WIND    PRES   REMARKS
ELLENSBURG AP   PTCLDY      51  43  74  S8      29.76
6HR MIN TEMP:   39; 6HR MAX TEMP:   53;

#ELLENSBURG CWU N/A         48  45  89  N1      29.75
#ELLENSBURG 3NE N/A         50  47  89  CALM    29.77
#ELLENSBURG     N/A         48  47  96  CALM    N/A
#KITTITAS 4N    N/A         49  43  80  CALM    29.83S
#THORP 6N       N/A         50  47  89  CALM    29.80
$$

WAZ027-280110-
YAKIMA VALLEY

CITY            SKY/WX      TMP DP  RH  WIND    PRES   REMARKS
YAKIMA AIRPORT  PTCLDY      58  43  57  S15G24  29.78
6HR MIN TEMP:   58; 6HR MAX TEMP:   64;

#DONALD 2NE     N/A         58  40  51  NE2     28.66F
#GRANDVIEW      N/A         60  45  58  CALM    29.84S
#MOXEE 2E       N/A         56  34  43  S13     29.73S
#NACHES 2SW     N/A         58  41  53  W14     29.78S
#OUTLOOK DOT    N/A         N/A N/A N/A S7      N/A
#SELAH 8E       N/A         52  43  71  S16G28  N/A
#TERRACE HTS    N/A         58  46  64  S6      29.76
#TOPPENISH      N/A         60  45  58  CALM    29.72S
#WAPATO 4NE     N/A         59  41  51  NE3     28.66F
#WEST VALLEY    N/A         61  41  48  SW9     29.74
#W YAKIMA       N/A         57  43  59  SE3     29.78R
#WHITE SWAN 5E  N/A         60  46  60  SW10    29.80
#WILEY CITY 3W  N/A         58  41  53  W8      29.76
$$

WAZ028-280110-
LOWER COLUMBIA BASIN...WASHINGTON

CITY            SKY/WX      TMP DP  RH  WIND    PRES   REMARKS
PASCO           CLOUDY      60  47  62  S12     29.84
6HR MIN TEMP:   58; 6HR MAX TEMP:   66;

PROSSER AWOS    N/A         63  46  54  SW18    29.85
#BASIN CITY 5SW N/A         63  48  58  SW10    29.79
#CONNELL 5N     N/A         59  48  67  SW15G24 29.79
#CONNELL 5NW    N/A         58  48  69  S16G25  29.76
#ELTOPIA 6NW    N/A         60  46  60  S17G31  28.77
#KAHLOTUS       N/A         59  46  62  W21G28  29.82
#KENNEWICK      N/A         48  47  96  S2      27.38F
#KENNEWICK 3S   N/A         62  48  60  E1      29.83
#PATERSON       N/A         58  47  67  CALM    29.83
#SAGEMOOR 2W    N/A         60  49  67  S14     29.67
#TOUCHET 2S     N/A         62  50  65  S7      29.83
#WEST PASCO     N/A         64  48  56  S5      29.84R
$$

WAZ029-280110-
FOOTHILLS OF THE BLUES...WASHINGTON

CITY            SKY/WX      TMP DP  RH  WIND    PRES   REMARKS
WALLA WALLA AP  CLOUDY      61  47  60  S15     29.85
6HR MIN TEMP:   56; 6HR MAX TEMP:   61; 6HR PCP:  TRACE;

#COLLEGE PLACE  N/A         57  44  62  E2      29.88
#DAYTON SCHOOL  N/A         61  43  51  E15G32  29.87
#PLEASANT VIEW 1N/A         54  44  69  S7      29.87
#PRESCOTT       N/A         58  47  67  CALM    29.84
#SUDBURY        N/A         61  N/A N/A CALM    N/A
#WHITMAN COLLEGEN/A         61  49  65  W3      29.90
#WAITSBURG 5S   N/A         57  48  72  S18G26  29.94
#WAITSBURG 8N   N/A         55  35  47  S12     29.79S
#WALLA WALLA 5E N/A         60  48  64  S6      N/A
$$

WAZ030-280110-
BLUE MOUNTAINS...WASHINGTON

CITY            SKY/WX      TMP DP  RH  WIND    PRES   REMARKS
$$

ORZ009-041-WAZ024-280110-
COLUMBIA RIVER GORGE

CITY            SKY/WX      TMP DP  RH  WIND    PRES   REMARKS
HOOD RIVER AP   CLOUDY      55  50  83  CALM    29.88
THE DALLES AP   CLOUDY      56  50  80  SE5     29.86
6HR MIN TEMP:   54; 6HR MAX TEMP:   59; 6HR PCP:  TRACE;

#ARLINGTON AIRPON/A         56  48  74  W14     29.99S
#CELILO DOT     N/A         55  48  77  S2      N/A
#MARYHILL 2W    N/A         58  51  77  CALM    N/A
#MOSIER 1S      N/A         53  46  77  SW6     29.91S
#MURDOCK        N/A         56  51  83  W8      29.87F
#RUFUS DOT      N/A         55  47  74  CALM    N/A

$$

ORZ510-280110-
NORTH CENTRAL OREGON

CITY            SKY/WX      TMP DP  RH  WIND    PRES   REMARKS
#COW CYN RST AREN/A         52  40  63  S9      N/A
#GRASS VALLEY   N/A         49  48  96  S3      N/A
#GRASS VALLEY 1SN/A         53  47  80  SW7     29.90
#KENT DOT       N/A         54  36  50  SW21    N/A
#MAUPIN SCHOOL  N/A         57  49  75  CALM    28.76F
#MORO SCHOOL    N/A         54  51  90  S5      29.89
#SHANIKO 5WSW   N/A         50  33  52  S20     N/A
#TYGH VALLEY 2NEN/A         59  47  64  W3      29.87
#WASCO DOT      N/A         56  46  69  W5      N/A
#WASCO 5NE      N/A         54  47  77  N5      29.87
$$

ORZ511-280110-
CENTRAL OREGON

CITY            SKY/WX      TMP DP  RH  WIND    PRES   REMARKS
BEND AIRPORT    PTCLDY      48  39  71  SW13G30 29.96R WCI 43
MADRAS AIRPORT  CLOUDY      52  43  71  S7      29.94
PRINEVILLE AP   CLOUDY      52  39  61  S15     29.98R
#BEND 1SW       N/A         43  41  93  SW3     N/A
#BEND-AWBREY    N/A         46  42  86  NE8     29.93S
#BEND-KIM LN    N/A         47  41  79  SW8     29.91
#CROOKED RVR RANN/A         53  42  66  CALM    29.88S
#CULVER         N/A         53  41  64  S8      29.88
#LAKE BILLY CHINN/A         54  26  34  W3      29.99S
#POWELL BUTTE 3EN/A         52  38  59  SW10    N/A
#POWELL BUTTE   N/A         51  39  63  W16     29.60F
#PRINEVILLE 3N  N/A         52  41  66  SE14    29.90S
#WARM SPRINGS   N/A         59  44  57  E6      29.86


ORZ509-280110-
EAST SLOPES OF OREGON CASCADES

CITY            SKY/WX      TMP DP  RH  WIND    PRES   REMARKS
#BLUE BOX PASS  N/A         44  -6  12  W3      N/A
#BLACK BUTTE RNCN/A         46  43  89  S1      29.91S
#CAMP SHERMAN   N/A         43  40  89  CALM    29.89
#LA PINE DOT    N/A         43  38  82  SE1     N/A
#LA PINE 4NW    N/A         43  39  86  CALM    30.03
#LAVA BUTTE DOT N/A         41  40  96  SW2     N/A
#MT BACHELOR-MIDN/A         33  32  96  S39G54  N/A    WCI 17
#SISTERS AIRPOR N/A         52  46  80  W6      29.91S
#SISTERS ODOT   N/A         52  N/A N/A CALM    N/A
#SISTERS 3N     N/A         49  38  66  N6      29.92F
#SUNRIVER       N/A         42  41  96  SW3     29.87F
#TUMALO 3W      N/A         50  40  68  S10     29.73
#WANOGA BUTTE D N/A         36  36  100 W14     N/A    WCI 27

$$

ORZ044-280110-
LOWER COLUMBIA BASIN...OREGON

CITY            SKY/WX      TMP DP  RH  WIND    PRES   REMARKS
HERMISTON       CLOUDY      63  46  54  SW10    29.84
6HR MIN TEMP:   53; 6HR MAX TEMP:   63;

#BOARDMAN 3W    N/A         56  49  77  CALM    29.56S
#BOARDMAN 8SW   N/A         61  49  65  W2      29.83S
#ECHO 8SW       N/A         63  47  56  SW9     29.82
#IONE SCHOOL    N/A         62  45  54  S2      29.85
#IRRIGON 4NW    N/A         58  50  75  SE6     N/A
#UMATILLA SCHOOLN/A         58  52  80  SW2     29.85
#UMATILLA       N/A         60  46  60  S3      29.80
$$

ORZ507-280110-
NORTHERN FOOTHILLS OF THE BLUES

CITY            SKY/WX      TMP DP  RH  WIND    PRES   REMARKS
PENDLETON AIRPT CLOUDY      59  43  55  SW15    29.86
6HR MIN TEMP:   56; 6HR MAX TEMP:   62; 6HR PCP:  TRACE;

#ADAMS 3WNW     N/A         58  47  67  SW14    29.87
#ATHENA         N/A         58  46  64  S7      29.87
#CAYUSE         N/A         62  44  52  S13     29.83S
#HELIX SCHOOL   N/A         58  47  67  S12     29.86
#HELIX 3N       N/A         57  47  69  S16G25  29.85
#HOLDMAN 5SE    N/A         61  48  62  SW8     29.86
#M-F FERNDALE   N/A         61  48  62  SE1     29.85
#M-FREEWATER 5SEN/A         58  49  72  E10     29.88
#PENDLETON DNTN N/A         63  40  43  SW10    28.67
#PDT AQUATIC CTRN/A         63  42  46  S8      29.88
#PENDLETON 7NW  N/A         60  47  62  S7      27.33
#TUTUILLA       N/A         61  43  51  S15G24  29.85F
#UMAPINE 2E     N/A         62  51  67  S7      29.82
#WESTON SCHOOL  N/A         57  45  64  SW12    29.86

$$

ORZ508-280110-
SOUTHERN FOOTHILLS OF THE BLUES

CITY            SKY/WX      TMP DP  RH  WIND    PRES   REMARKS
LEXINGTON       CLOUDY      61  43  51  S13     29.88S
#AJAX           N/A         57  40  53  S15G28  29.83
#CONDON SCHOOL  N/A         55  43  64  VRB1G25 29.86
#CONDON 5W      N/A         52  41  66  S18G31  29.88
#FOSSIL SCHOOL  N/A         55  43  64  S1      29.90
#HEPPNER 4NE    N/A         54  42  64  N2      29.83
#LEXINGTON 2SE  N/A         61  45  56  S13     29.83
#MIKKALO        N/A         58  45  62  SW7     29.86
#OLEX 4N        N/A         59  48  67  SW15G24 29.85
#RUGGS 5NE      N/A         54  41  61  S12G26  30.04

$$

ORZ502-503-280110-
BLUE MOUNTAINS

CITY            SKY/WX      TMP DP  RH  WIND    PRES   REMARKS
#BATTLE MTN DOT N/A         45  43  93  S12     N/A    WCI 39
#HARDMAN 10S    N/A         44  40  86  S8      30.03
#HEPPNER 15SE   N/A         47  39  74  N2      29.82S
#LADD CYN SMT   N/A         46  38  73  SE9     N/A
#LADD CREEK ODOTN/A         48  -4  11  SW7     N/A
#LONG CREEK HS  N/A         49  43  80  SW23G37 29.92  WCI 42
#N POWDER DOT   N/A         49  40  71  SE15    N/A    WCI 43
#PIKES PEAK     N/A         51  44  77  SW25G43 27.99
#TOLLGATE       N/A         42  41  96  SW6     29.88
#TROY SCHOOL    N/A         57  46  67  SW1     29.78
#UKIAH          N/A         48  42  80  S3      30.00
#WESTON 4E      N/A         49  45  86  S7      29.80
$$

ORZ505-280110-
JOHN DAY BASIN

CITY            SKY/WX      TMP DP  RH  WIND    PRES   REMARKS
JOHN DAY        CLOUDY      51  38  61  W8      30.02F
#DAYVILLE SCHOOLN/A         56  38  51  E5      29.98
#WINLOCK        N/A         47  45  93  CALM    30.03F
$$

ORZ506-280110-
OCHOCO AND JOHN DAY HIGHLANDS

CITY            SKY/WX      TMP DP  RH  WIND    PRES   REMARKS
#BUCK CREEK DOT N/A         53  40  61  W5      N/A
#HORSE RIDGE DO N/A         47  37  68  S14     N/A    WCI 41
#KEYES SMT DOT  N/A         47  36  65  SE8     N/A
#PINE MTN OBS   N/A         37  34  89  S17G30  N/A    WCI 27
#PRAIRIE CITY   N/A         44  40  86  E1      30.10
#SENECA         N/A         41  N/A N/A SW2     N/A
#SENECA 9NW     N/A         39  38  96  CALM    30.10
$$

ORZ049-280110-
GRANDE RONDE VALLEY

CITY            SKY/WX      TMP DP  RH  WIND    PRES   REMARKS
LA GRANDE       CLOUDY      52  37  56  S15     29.94F
#COVE           N/A         50  44  80  CALM    30.03
#COVE SCHOOL    N/A         50  45  83  E7      29.95
#COVE 6NW       N/A         49  42  77  SE5     29.99
#ELGIN 3N       N/A         50  42  74  W6      29.67F
#ELGIN 1E       N/A         50  43  77  CALM    N/A
#IMBLER SCHOOL  N/A         49  43  80  S3      29.90F
#ISLAND CITY 4N N/A         54  51  90  SE2     29.88
#LADD CYN DOT   N/A         51  41  68  S15     N/A
$$

ORZ050-280110-
WALLOWA COUNTY

CITY            SKY/WX      TMP DP  RH  WIND    PRES   REMARKS
#ENTERPRISE AP  N/A         52  38  59  SE8     29.90
#ENTERPRISE HS  N/A         52  41  66  E7      29.96
#IMNAHA SCHOOL  N/A         57  41  55  S14G24  29.95
#JOSEPH 3N      N/A         49  40  71  E5      29.97
#JOSEPH 3W      N/A         44  41  89  CALM    29.80S
#LOSTINE        N/A         50  42  74  CALM    29.73
#MT HOWARD 8000 N/A         34  32  92  W22G45  29.98S WCI 22
#PROMISE 1S     N/A         46  42  86  E1      30.02
#WALLOWA SCHOOL N/A         54  42  64  CALM    30.89



$$



USA.gov is the U.S. government's official web portal to all federal, state and local government web resources and services.